When you browse on this site, cookies collect data to enhance your experience and personalize the content and advertising you see.
Visit our Privacy Policy to learn more. By continuing to use the site, you agree to this use of cookies and data.
  • In Romania
  • List of Countries
  • For 7 days
  • Water Temperature
  • Weather Map
  • Weather Widgets
  • user-avatar
    Login

    Hourly Weather Wien

    Today, 26 February, Wednesday

    Time Temperature Precipitation Wind Pressure Humidity
    00:00 +9°C° 0.1 mm 3 mps 731 mmHg 74%
    01:00 +9°C° 0.1 mm 3 mps 731 mmHg 74%
    02:00 +9°C° 0.1 mm 3 mps 730 mmHg 73%
    03:00 +7°C° 0.1 mm 4 mps 730 mmHg 73%
    04:00 +7°C° 0.1 mm 4 mps 729 mmHg 72%
    05:00 +6°C° 0 mm 4 mps 729 mmHg 71%
    06:00 +6°C° 0 mm 4 mps 729 mmHg 71%
    07:00 +5°C° 0 mm 4 mps 729 mmHg 70%
    08:00 +6°C° 0 mm 5 mps 729 mmHg 67%
    09:00 +5°C° 0 mm 6 mps 729 mmHg 65%
    10:00 +5°C° 0 mm 7 mps 730 mmHg 62%
    11:00 +5°C° 0 mm 7 mps 730 mmHg 55%
    12:00 +5°C° 0 mm 7 mps 730 mmHg 48%
    13:00 +7°C° 0 mm 6 mps 730 mmHg 41%
    14:00 +5°C° 0 mm 6 mps 730 mmHg 43%
    15:00 +5°C° 0 mm 6 mps 729 mmHg 45%
    16:00 +6°C° 0 mm 5 mps 729 mmHg 46%
    17:00 +5°C° 0 mm 5 mps 730 mmHg 50%
    18:00 +5°C° 0 mm 5 mps 730 mmHg 53%
    19:00 +3°C° 0 mm 5 mps 730 mmHg 56%
    20:00 +3°C° 0 mm 6 mps 731 mmHg 59%
    21:00 +2°C° 0 mm 6 mps 731 mmHg 62%
    22:00 +2°C° 0 mm 7 mps 731 mmHg 66%
    23:00 0°C° 0 mm 7 mps 732 mmHg 65%

    Tomorrow, 27 February, Thursday

    Time Temperature Precipitation Wind Pressure Humidity
    00:00 0°C° 0 mm 7 mps 733 mmHg 65%
    01:00 0°C° 0 mm 7 mps 733 mmHg 64%
    02:00 0°C° 0 mm 7 mps 733 mmHg 65%
    03:00 0°C° 0 mm 7 mps 734 mmHg 66%
    04:00 +1°C° 0 mm 6 mps 734 mmHg 67%
    05:00 0°C° 0 mm 7 mps 735 mmHg 67%
    06:00 -1°C° 0 mm 7 mps 735 mmHg 67%
    07:00 -1°C° 0 mm 7 mps 736 mmHg 67%
    08:00 0°C° 0 mm 8 mps 737 mmHg 62%
    09:00 +1°C° 0 mm 8 mps 737 mmHg 58%
    10:00 +2°C° 0 mm 8 mps 737 mmHg 54%
    11:00 +4°C° 0 mm 8 mps 737 mmHg 50%
    12:00 +4°C° 0 mm 7 mps 737 mmHg 46%
    13:00 +5°C° 0 mm 7 mps 737 mmHg 42%
    14:00 +6°C° 0 mm 5 mps 736 mmHg 41%
    15:00 +6°C° 0 mm 4 mps 735 mmHg 40%
    16:00 +7°C° 0 mm 3 mps 734 mmHg 39%
    17:00 +5°C° 0 mm 3 mps 733 mmHg 42%
    18:00 +5°C° 0 mm 4 mps 732 mmHg 46%
    19:00 +3°C° 0 mm 5 mps 732 mmHg 49%
    20:00 +3°C° 0 mm 5 mps 731 mmHg 50%
    21:00 +3°C° 0 mm 5 mps 730 mmHg 51%
    22:00 +4°C° 0 mm 4 mps 729 mmHg 52%
    23:00 +4°C° 0 mm 4 mps 728 mmHg 53%

    Day after tomorrow, 28 February, Friday

    Time Temperature Precipitation Wind Pressure Humidity
    00:00 +3°C° 0 mm 4 mps 728 mmHg 54%
    01:00 +3°C° 0 mm 4 mps 728 mmHg 55%
    02:00 +2°C° 0.1 mm 6 mps 728 mmHg 58%
    03:00 +1°C° 0.1 mm 9 mps 728 mmHg 61%
    04:00 +1°C° 0.1 mm 11 mps 729 mmHg 63%
    05:00 0°C° 0 mm 12 mps 730 mmHg 61%
    06:00 0°C° 0 mm 13 mps 731 mmHg 58%
    07:00 -1°C° 0 mm 13 mps 732 mmHg 56%
    08:00 0°C° 0 mm 13 mps 734 mmHg 53%
    09:00 0°C° 0 mm 13 mps 735 mmHg 50%
    10:00 +1°C° 0 mm 13 mps 737 mmHg 47%
    11:00 +2°C° 0.1 mm 12 mps 738 mmHg 48%
    12:00 +3°C° 0.1 mm 11 mps 739 mmHg 50%
    13:00 +3°C° 0.1 mm 11 mps 740 mmHg 51%
    14:00 +3°C° 0.1 mm 10 mps 740 mmHg 49%
    15:00 +3°C° 0.1 mm 9 mps 741 mmHg 47%
    16:00 +4°C° 0.1 mm 8 mps 741 mmHg 45%
    17:00 +3°C° 0 mm 7 mps 742 mmHg 50%
    18:00 +2°C° 0 mm 5 mps 742 mmHg 56%
    19:00 +1°C° 0 mm 4 mps 743 mmHg 61%
    20:00 +2°C° 0 mm 3 mps 743 mmHg 64%
    21:00 +2°C° 0 mm 2 mps 743 mmHg 66%
    22:00 +2°C° 0 mm 2 mps 743 mmHg 69%
    23:00 +3°C° 0 mm 1 mps 743 mmHg 68%

    29 February, Saturday

    Time Temperature Precipitation Wind Pressure Humidity
    00:00 +3°C° 0 mm 1 mps 743 mmHg 67%
    01:00 +4°C° 0 mm 1 mps 743 mmHg 65%
    02:00 +4°C° 0 mm 1 mps 742 mmHg 66%
    03:00 +3°C° 0 mm 1 mps 742 mmHg 66%
    04:00 +3°C° 0 mm 1 mps 741 mmHg 67%
    05:00 +3°C° 0 mm 1 mps 741 mmHg 67%
    06:00 +3°C° 0 mm 1 mps 740 mmHg 68%
    07:00 +3°C° 0 mm 1 mps 740 mmHg 68%
    08:00 +3°C° 0 mm 2 mps 739 mmHg 64%
    09:00 +4°C° 0 mm 2 mps 739 mmHg 59%
    10:00 +5°C° 0 mm 2 mps 739 mmHg 55%
    11:00 +6°C° 0 mm 2 mps 738 mmHg 53%
    12:00 +7°C° 0 mm 3 mps 737 mmHg 52%
    13:00 +8°C° 0 mm 3 mps 737 mmHg 50%
    14:00 +9°C° 0 mm 3 mps 736 mmHg 50%
    15:00 +8°C° 0 mm 4 mps 735 mmHg 49%
    16:00 +10°C° 0 mm 4 mps 734 mmHg 49%
    17:00 +8°C° 0 mm 4 mps 734 mmHg 52%
    18:00 +7°C° 0 mm 4 mps 733 mmHg 56%
    19:00 +6°C° 0 mm 4 mps 733 mmHg 60%
    20:00 +7°C° 0 mm 3 mps 733 mmHg 63%
    21:00 +5°C° 0 mm 3 mps 733 mmHg 66%
    22:00 +6°C° 0 mm 2 mps 732 mmHg 69%
    23:00 +6°C° 0 mm 2 mps 732 mmHg 69%

    1 March, Sunday

    Time Temperature Precipitation Wind Pressure Humidity
    00:00 +6°C° 0 mm 2 mps 732 mmHg 69%
    01:00 +4°C° 0 mm 3 mps 732 mmHg 70%
    02:00 +5°C° 0 mm 3 mps 733 mmHg 71%
    03:00 +5°C° 0 mm 4 mps 733 mmHg 73%
    04:00 +6°C° 0 mm 4 mps 733 mmHg 75%
    05:00 +5°C° 0.2 mm 4 mps 734 mmHg 76%
    06:00 +5°C° 0.2 mm 4 mps 734 mmHg 77%
    07:00 +5°C° 0.2 mm 3 mps 734 mmHg 78%
    08:00 +7°C° 0 mm 3 mps 735 mmHg 72%
    09:00 +8°C° 0 mm 3 mps 735 mmHg 66%
    10:00 +8°C° 0 mm 3 mps 735 mmHg 60%
    11:00 +9°C° 0 mm 3 mps 735 mmHg 57%
    12:00 +9°C° 0 mm 2 mps 735 mmHg 55%
    13:00 +9°C° 0 mm 2 mps 734 mmHg 53%
    14:00 +9°C° 0 mm 2 mps 734 mmHg 55%
    15:00 +9°C° 0 mm 3 mps 734 mmHg 56%
    16:00 +9°C° 0 mm 3 mps 734 mmHg 58%
    17:00 +8°C° 0 mm 3 mps 734 mmHg 64%
    18:00 +7°C° 0 mm 3 mps 734 mmHg 69%
    19:00 +6°C° 0 mm 2 mps 734 mmHg 75%
    20:00 +6°C° 0 mm 2 mps 733 mmHg 76%
    21:00 +5°C° 0 mm 2 mps 733 mmHg 77%
    22:00 +5°C° 0 mm 2 mps 733 mmHg 79%
    23:00 +4°C° 0 mm 3 mps 732 mmHg 75%

    2 March, Monday

    Time Temperature Precipitation Wind Pressure Humidity
    00:00 +4°C° 0 mm 4 mps 732 mmHg 71%
    01:00 +3°C° 0 mm 5 mps 731 mmHg 68%
    02:00 +4°C° 0 mm 4 mps 731 mmHg 70%
    03:00 +4°C° 0 mm 3 mps 732 mmHg 73%
    04:00 +4°C° 0 mm 3 mps 732 mmHg 75%
    05:00 +4°C° 0 mm 2 mps 732 mmHg 77%
    06:00 +4°C° 0 mm 2 mps 732 mmHg 79%
    07:00 +5°C° 0 mm 1 mps 732 mmHg 80%
    08:00 +6°C° 0 mm 2 mps 731 mmHg 73%
    09:00 +7°C° 0 mm 3 mps 731 mmHg 67%
    10:00 +8°C° 0 mm 4 mps 731 mmHg 60%
    11:00 +9°C° 0 mm 5 mps 731 mmHg 57%
    12:00 +10°C° 0 mm 6 mps 731 mmHg 54%
    13:00 +11°C° 0 mm 7 mps 730 mmHg 51%
    14:00 +11°C° 0 mm 6 mps 730 mmHg 53%
    15:00 +12°C° 0 mm 5 mps 730 mmHg 55%
    16:00 +12°C° 0 mm 4 mps 729 mmHg 57%
    17:00 +11°C° 0 mm 3 mps 729 mmHg 60%
    18:00 +10°C° 0 mm 2 mps 729 mmHg 64%
    19:00 +9°C° 0 mm 2 mps 730 mmHg 68%
    20:00 +9°C° 0 mm 2 mps 730 mmHg 70%
    21:00 +9°C° 0 mm 2 mps 730 mmHg 71%
    22:00 +9°C° 0 mm 2 mps 730 mmHg 73%
    23:00 +8°C° 0.2 mm 2 mps 730 mmHg 77%
    Show more